Location: Avully
(45.9633°N, 6.0228°E)
Time: 20:20:40
(UTC+00:00)

Cosmos 1782 Rocket - Pass Details

Date: 23 May 2024
Orbit: 602 x 629 km, 82.5° (Epoch: 16 June)

Event Time Altitude Azimuth Distance (km) Brightness Sun altitude
Rises 01:51:11 0° 346° (NNW) 2,896 7.6 -16.4°
Reaches altitude 10° 01:53:28 10° 341° (NNW) 1,982 6.6 -16.1°
Maximum altitude 01:57:42 50° 267° (W) 786 3.8 -15.7°
Enters shadow 01:59:42 28° 206° (SSW) 1,162 4.4 -15.5°
